Location: ??????
(38.0677°N, 22.9870°E)
Time: 11:19:05
(UTC+00:00)

Meteor 1-28 Rocket - Pass Details

Date: 23 May 2024
Orbit: 474 x 489 km, 97.5° (Epoch: 18 June)

Event Time Altitude Azimuth Distance (km) Brightness Sun altitude
Exits shadow 02:00:52 18° 253° (WSW) 1,226 4.5 -12.4°
Maximum altitude 02:01:23 19° 265° (W) 1,205 4.6 -12.4°
Drops below altitude 10° 02:03:59 10° 312° (NW) 1,660 5.7 -12.0°
Sets 02:06:30 0° 331° (NNW) 2,541 6.8 -11.6°
